EA6DT Weather Reports


Display with metric or nautical units.
time (UTC)temp
F
wind
direction
speed
MPH
gust
MPH
rain 1hr
in
rain 24hr
in
rain mn
in
humidity
%
barometer
mb
20260508095845 65 58 5.0 0.0 0.00 0.00 0.09 83 1014.4
20260508095353 65 87 5.0 0.0 0.00 0.00 0.09 84 1014.4
20260508094843 64 103 4.0 0.0 0.00 0.00 0.09 85 1014.5
20260508094353 63 86 4.0 0.0 0.00 0.00 0.09 86 1014.7
20260508093842 63 59 4.0 0.0 0.00 0.00 0.09 87 1014.7
20260508093334 63 72 3.0 0.0 0.00 0.00 0.09 88 1014.6
20260508092841 63 54 3.0 0.0 0.00 0.00 0.09 88 1014.5
20260508092332 62 54 3.0 0.0 0.00 0.00 0.09 88 1014.5
20260508091830 62 73 3.0 0.0 0.00 0.00 0.09 89 1014.7
20260508091342 62 74 3.0 0.0 0.00 0.00 0.09 89 1014.7
20260508090832 61 75 3.0 0.0 0.00 0.00 0.09 89 1014.6
20260508090338 61 1 2.0 0.0 0.00 0.00 0.09 90 1014.6
20260508085844 61 63 3.0 0.0 0.00 0.00 0.09 90 1014.4
20260508085354 61 76 3.0 0.0 0.00 0.00 0.09 90 1014.4
20260508084843 61 84 3.0 0.0 0.00 0.00 0.09 90 1014.4
20260508084335 61 65 3.0 0.0 0.00 0.00 0.09 90 1014.4
20260508083842 61 101 3.0 0.0 0.00 0.00 0.09 91 1014.4
20260508083332 61 82 4.0 0.0 0.00 0.00 0.09 91 1014.4
20260508082842 61 105 4.0 0.0 0.00 0.00 0.09 92 1014.3
20260508082333 61 90 4.0 0.0 0.00 0.00 0.09 92 1014.3
20260508081844 61 1 3.0 0.0 0.00 0.00 0.09 93 1014.3
20260508081330 61 335 2.0 0.0 0.00 0.00 0.09 94 1014.3
20260508080840 60 60 3.0 0.0 0.00 0.00 0.09 94 1014.4
20260508080333 60 67 3.0 0.0 0.00 0.00 0.09 95 1014.3
20260508075836 60 68 3.0 0.0 0.00 0.00 0.09 95 1014.3
20260508075347 59 80 2.0 0.0 0.00 0.00 0.09 95 1014.2
20260508074832 59 83 2.0 0.0 0.00 0.00 0.09 95 1014.0
20260508074343 59 74 2.0 0.0 0.00 0.00 0.09 95 1014.0
20260508073833 59 41 2.0 0.0 0.00 0.00 0.09 95 1014.0
20260508073404 59 34 1.0 0.0 0.00 0.00 0.09 95 1014.1
20260508072826 58 77 2.0 0.0 0.00 0.00 0.09 95 1014.1
20260508072337 58 92 2.0 0.0 0.00 0.00 0.09 95 1014.0
20260508071827 58 65 2.0 0.0 0.00 0.00 0.09 95 1014.0
20260508071338 58 110 2.0 0.0 0.00 0.00 0.09 95 1014.1
20260508070828 58 98 2.0 0.0 0.00 0.00 0.09 95 1014.1
20260508070336 58 83 2.0 0.0 0.00 0.00 0.09 95 1014.0
20260508065840 58 91 2.0 0.0 0.00 0.00 0.09 95 1014.0
20260508065329 58 101 2.0 0.0 0.00 0.00 0.09 95 1013.9
20260508064859 58 89 3.0 0.0 0.00 0.00 0.09 95 1013.9
20260508064401 58 84 3.0 0.0 0.00 0.00 0.09 95 1013.9
20260508063906 58 103 3.0 0.0 0.00 0.00 0.09 95 1013.9
20260508063332 58 94 3.0 0.0 0.00 0.00 0.09 95 1013.8
20260508062843 58 105 3.0 0.0 0.00 0.00 0.09 95 1013.8
20260508062334 58 67 3.0 0.0 0.00 0.00 0.09 95 1013.8
20260508061840 58 101 2.0 0.0 0.00 0.00 0.09 95 1013.6
20260508061351 58 114 1.0 0.0 0.00 0.00 0.09 96 1013.6
20260508060840 58 98 2.0 0.0 0.00 0.00 0.09 96 1013.5
20260508060331 58 72 2.0 0.0 0.00 0.00 0.09 95 1013.5
20260508055830 58 71 2.0 0.0 0.00 0.00 0.09 95 1013.5
20260508055340 58 69 2.0 0.0 0.00 0.00 0.09 95 1013.4
20260508054830 58 96 2.0 0.0 0.00 0.00 0.09 96 1013.4
20260508054342 57 102 1.0 0.0 0.00 0.00 0.09 95 1013.4
20260508053832 57 125 1.0 0.0 0.00 0.00 0.09 96 1013.3
20260508053358 57 63 1.0 0.0 0.00 0.00 0.09 96 1013.2
20260508052828 57 87 2.0 0.0 0.00 0.00 0.09 96 1013.1
20260508052338 57 91 2.0 0.0 0.00 0.00 0.09 96 1013.0
20260508051829 57 73 2.0 0.0 0.00 0.00 0.09 96 1012.9
20260508051327 57 94 2.0 0.0 0.00 0.00 0.09 96 1012.8
20260508050833 57 94 1.0 0.0 0.00 0.00 0.09 96 1012.5
20260508050344 57 44 1.0 0.0 0.00 0.00 0.09 95 1012.5
20260508045848 57 85 2.0 0.0 0.00 0.00 0.09 95 1012.4
20260508045335 57 88 1.0 0.0 0.00 0.00 0.09 95 1012.2
20260508044845 57 107 1.0 0.0 0.00 0.00 0.09 95 1012.2
20260508044351 57 156 1.0 0.0 0.00 0.00 0.09 95 1012.2
20260508043841 57 101 1.0 0.0 0.00 0.00 0.09 95 1012.1
20260508043332 57 82 1.0 0.0 0.00 0.00 0.09 95 1012.0
20260508042842 57 101 1.0 0.0 0.00 0.00 0.09 95 1012.0
20260508042333 57 113 1.0 0.0 0.00 0.00 0.09 96 1012.1
20260508041859 57 96 1.0 0.0 0.00 0.00 0.09 95 1012.0
20260508041347 57 110 1.0 0.0 0.00 0.00 0.09 95 1012.0
20260508040836 57 115 1.0 0.0 0.00 0.00 0.09 95 1012.0
20260508040326 58 104 1.0 0.0 0.00 0.00 0.09 95 1011.9
20260508035825 58 58 1.0 0.0 0.00 0.00 0.09 95 1011.9
20260508035356 58 46 1.0 0.0 0.00 0.00 0.09 95 1012.0
20260508034825 58 72 1.0 0.0 0.00 0.00 0.09 95 1012.0
20260508034343 58 77 1.0 0.0 0.00 0.00 0.09 96 1012.1
20260508033830 58 101 1.0 0.0 0.00 0.00 0.09 96 1012.2
20260508033337 58 89 2.0 0.0 0.00 0.00 0.09 95 1012.2
20260508032827 58 98 2.0 0.0 0.00 0.00 0.09 95 1012.3
20260508032337 58 63 1.0 0.0 0.00 0.00 0.09 95 1012.3
20260508031827 58 95 0.0 0.0 0.00 0.00 0.09 95 1012.3
20260508031355 58 92 1.0 0.0 0.00 0.00 0.09 95 1012.4
20260508030843 58 77 1.0 0.0 0.00 0.00 0.09 95 1012.3
20260508030333 58 94 1.0 0.0 0.00 0.00 0.09 95 1012.3
20260508025856 58 60 1.0 0.0 0.00 0.00 0.09 95 1012.4
20260508025404 58 39 1.0 0.0 0.00 0.00 0.09 95 1012.4
20260508024832 58 45 1.0 0.0 0.00 0.00 0.09 95 1012.3
20260508024342 58 41 1.0 0.0 0.00 0.00 0.09 95 1012.3
20260508023833 58 79 1.0 0.0 0.00 0.00 0.09 95 1012.3
20260508023344 58 70 1.0 0.0 0.00 0.00 0.09 96 1012.3
20260508022835 57 45 1.0 0.0 0.00 0.00 0.09 96 1012.3
20260508022341 57 63 1.0 0.0 0.00 0.00 0.09 96 1012.3
20260508021831 57 108 1.0 0.0 0.00 0.00 0.09 95 1012.3
20260508021343 57 92 2.0 0.0 0.00 0.00 0.09 95 1012.3
20260508020833 57 105 2.0 0.0 0.00 0.00 0.09 95 1012.2
20260508020344 57 45 2.0 0.0 0.00 0.00 0.09 95 1012.1
20260508015844 57 70 2.0 0.0 0.00 0.00 0.09 95 1012.1
20260508015336 57 81 1.0 0.0 0.00 0.00 0.09 95 1012.2
20260508014906 57 78 1.0 0.0 0.00 0.00 0.09 95 1012.2
20260508014335 57 76 1.0 0.0 0.00 0.00 0.09 95 1012.3
20260508013841 57 82 2.0 0.0 0.00 0.00 0.09 95 1012.3
20260508013332 57 88 2.0 0.0 0.00 0.00 0.09 95 1012.4
20260508012843 58 96 2.0 0.0 0.00 0.00 0.09 95 1012.3
20260508012335 58 103 3.0 0.0 0.00 0.00 0.09 95 1012.4
20260508011845 58 55 3.0 0.0 0.00 0.00 0.09 95 1012.4
20260508010834 58 91 3.0 0.0 0.00 0.00 0.09 95 1012.5
20260508010344 58 84 3.0 0.0 0.00 0.00 0.09 95 1012.6
20260508005827 58 65 3.0 0.0 0.00 0.00 0.09 95 1012.7
20260508004834 58 86 3.0 0.0 0.00 0.00 0.09 95 1012.8
20260508004340 58 99 2.0 0.0 0.00 0.00 0.09 95 1012.9
20260508003830 58 83 2.0 0.0 0.00 0.00 0.09 95 1012.9
20260508003341 58 70 2.0 0.0 0.00 0.00 0.09 95 1012.9
20260508002831 58 56 2.0 0.0 0.00 0.00 0.09 95 1012.9
20260508002341 57 53 2.0 0.0 0.00 0.00 0.09 95 1012.9
20260508001827 57 45 2.0 0.0 0.00 0.00 0.09 95 1013.0
20260508001338 57 22 2.0 0.0 0.00 0.00 0.09 95 1013.0
20260508000828 57 56 2.0 0.0 0.00 0.00 0.09 95 1013.0
20260508000338 57 34 2.0 0.0 0.00 0.00 0.09 95 1013.1
20260507235841 57 44 2.0 0.0 0.00 0.00 0.09 95 1013.1
20260507235336 57 54 2.0 0.0 0.00 0.00 0.08 95 1013.2
20260507234846 57 27 2.0 0.0 0.00 0.00 0.08 95 1013.2
20260507234337 57 82 2.0 0.0 0.00 0.00 0.08 95 1013.2
20260507233826 57 73 2.0 0.0 0.00 0.00 0.08 95 1013.3
20260507233338 57 46 1.0 0.0 0.00 0.00 0.08 95 1013.5
20260507232905 57 105 2.0 0.0 0.00 0.00 0.08 95 1013.6
20260507232334 57 48 2.0 0.0 0.00 0.00 0.08 95 1013.6
20260507231845 57 48 1.0 0.0 0.00 0.00 0.08 95 1013.6
20260507231337 57 56 1.0 0.0 0.00 0.00 0.08 95 1013.6
20260507230827 57 63 2.0 0.0 0.00 0.00 0.08 95 1013.6
20260507230333 57 32 2.0 0.0 0.00 0.00 0.08 95 1013.6
20260507225837 58 93 1.0 0.0 0.00 0.00 0.07 95 1013.7
20260507225329 57 51 2.0 0.0 0.00 0.00 0.07 95 1013.8
20260507224839 57 42 3.0 0.0 0.00 0.00 0.06 95 1013.9
20260507224329 57 82 3.0 0.0 0.00 0.00 0.06 95 1013.9
20260507223835 57 84 4.0 0.0 0.00 0.00 0.06 94 1013.9
20260507223327 57 75 4.0 0.0 0.00 0.00 0.05 94 1013.9
20260507222837 57 86 4.0 0.0 0.00 0.00 0.03 94 1013.8
20260507222347 57 48 4.0 0.0 0.00 0.00 0.02 95 1013.9
20260507221856 57 73 4.0 0.0 0.00 0.00 0.01 95 1013.8
20260507221403 58 96 3.0 0.0 0.00 0.00 0.00 95 1013.8
20260507220832 58 106 2.0 0.0 0.00 0.00 0.00 95 1013.8
20260507220342 58 39 2.0 0.0 0.00 0.00 0.00 95 1013.7
20260507215826 58 78 2.0 0.0 0.00 0.00 0.00 95 1013.7
20260507215332 58 39 2.0 0.0 0.00 0.00 0.35 95 1013.7
20260507214843 57 44 2.0 0.0 0.00 0.00 0.35 95 1013.6
20260507214334 57 65 2.0 0.0 0.00 0.00 0.35 95 1013.6
20260507213903 58 43 2.0 0.0 0.00 0.00 0.35 95 1013.6
20260507213333 58 37 2.0 0.0 0.00 0.00 0.35 95 1013.7
20260507212839 58 46 2.0 0.0 0.00 0.00 0.35 95 1013.7
20260507212330 58 58 2.0 0.0 0.00 0.00 0.35 95 1013.8
20260507211840 58 60 2.0 0.0 0.00 0.00 0.35 95 1013.8
20260507211351 58 48 1.0 0.0 0.00 0.00 0.35 95 1013.8
20260507210840 58 50 1.0 0.0 0.00 0.00 0.35 95 1013.8
20260507210339 58 93 1.0 0.0 0.00 0.00 0.35 95 1013.7
20260507205844 58 89 1.0 0.0 0.00 0.00 0.35 95 1013.7
20260507205333 58 73 2.0 0.0 0.00 0.00 0.35 95 1013.6
20260507204844 58 54 2.0 0.0 0.00 0.00 0.35 95 1013.7
20260507204334 58 49 2.0 0.0 0.00 0.00 0.35 95 1013.6
20260507203900 58 56 2.0 0.0 0.00 0.00 0.35 95 1013.5
20260507203331 58 56 2.0 0.0 0.00 0.00 0.35 95 1013.5
20260507202852 58 76 1.0 0.0 0.00 0.00 0.35 95 1013.4
20260507202352 58 96 1.0 0.0 0.00 0.00 0.35 95 1013.4
20260507201853 58 66 1.0 0.0 0.00 0.00 0.35 95 1013.4
20260507201346 58 82 1.0 0.0 0.00 0.00 0.35 95 1013.4
20260507200842 58 43 1.0 0.0 0.00 0.00 0.35 95 1013.4
20260507200354 58 31 1.0 0.0 0.00 0.00 0.35 95 1013.3
20260507195838 58 32 2.0 0.0 0.00 0.00 0.35 95 1013.2
20260507195328 58 72 1.0 0.0 0.00 0.00 0.35 95 1013.2
20260507194835 58 71 2.0 0.0 0.00 0.00 0.35 95 1013.2
20260507194328 59 68 2.0 0.0 0.00 0.00 0.35 95 1013.2
20260507193837 59 42 2.0 0.0 0.00 0.00 0.34 95 1013.1
20260507193327 59 70 2.0 0.0 0.00 0.00 0.34 95 1013.0
20260507192837 59 46 1.0 0.0 0.00 0.00 0.34 95 1013.0
20260507192344 59 83 1.0 0.0 0.00 0.00 0.34 95 1012.9
20260507191834 59 65 1.0 0.0 0.00 0.00 0.34 95 1012.9
20260507191344 59 44 1.0 0.0 0.00 0.00 0.34 95 1012.9
20260507190834 59 50 1.0 0.0 0.00 0.00 0.33 94 1012.9
20260507190327 59 86 1.0 0.0 0.00 0.00 0.33 95 1012.9
20260507185845 59 111 2.0 0.0 0.00 0.00 0.33 95 1012.8
20260507185355 58 96 2.0 0.0 0.00 0.00 0.33 94 1012.8
20260507184845 58 91 2.0 0.0 0.00 0.00 0.33 94 1012.7
20260507184336 58 60 2.0 0.0 0.00 0.00 0.33 94 1012.6
20260507183839 59 99 2.0 0.0 0.00 0.00 0.33 94 1012.6
20260507183328 59 65 1.0 0.0 0.00 0.00 0.33 94 1012.5
20260507182858 59 117 2.0 0.0 0.00 0.00 0.33 94 1012.4
20260507182329 59 64 1.0 0.0 0.00 0.00 0.33 94 1012.3
20260507181828 59 45 1.0 0.0 0.00 0.00 0.33 94 1012.2
20260507181334 59 81 2.0 0.0 0.00 0.00 0.32 94 1012.2
20260507180904 59 54 3.0 0.0 0.00 0.00 0.31 94 1012.1
20260507180334 59 61 3.0 0.0 0.00 0.00 0.31 94 1012.0
20260507175837 59 82 2.0 0.0 0.00 0.00 0.30 94 1012.0
20260507175327 59 75 2.0 0.0 0.00 0.00 0.29 94 1011.9
20260507174853 59 78 2.0 0.0 0.00 0.00 0.29 94 1011.9
20260507174343 59 73 2.0 0.0 0.00 0.00 0.28 94 1011.9
20260507173833 59 64 2.0 0.0 0.00 0.00 0.28 94 1011.9
20260507173343 59 71 2.0 0.0 0.00 0.00 0.28 94 1011.9
20260507172833 59 40 2.0 0.0 0.00 0.00 0.28 93 1012.0
20260507172340 59 41 1.0 0.0 0.00 0.00 0.28 93 1011.9
20260507171830 59 77 1.0 0.0 0.00 0.00 0.27 93 1011.9
20260507171340 60 69 1.0 0.0 0.00 0.00 0.26 93 1012.0
20260507170831 60 46 2.0 0.0 0.00 0.00 0.25 93 1012.0
20260507170342 60 103 3.0 0.0 0.00 0.00 0.24 93 1012.0
20260507165841 60 97 3.0 0.0 0.00 0.00 0.23 93 1012.0
20260507165352 60 91 3.0 0.0 0.00 0.00 0.21 93 1012.1
20260507164842 60 55 3.0 0.0 0.00 0.00 0.20 93 1012.2
20260507164333 60 98 3.0 0.0 0.00 0.00 0.19 93 1012.2
20260507163839 60 85 3.0 0.0 0.00 0.00 0.18 92 1012.2
20260507163330 60 93 3.0 0.0 0.00 0.00 0.17 92 1012.2
20260507162840 59 98 4.0 0.0 0.00 0.00 0.17 92 1012.2
20260507162329 60 84 4.0 0.0 0.00 0.00 0.16 91 1012.1
20260507161840 60 88 4.0 0.0 0.00 0.00 0.15 91 1012.1
20260507161348 60 69 3.0 0.0 0.00 0.00 0.14 91 1012.0
20260507160837 60 109 5.0 0.0 0.00 0.00 0.13 90 1012.0
20260507160348 60 137 5.0 0.0 0.00 0.00 0.12 89 1012.0
20260507155858 61 87 5.0 0.0 0.00 0.00 0.06 89 1012.0
20260507155403 61 54 4.0 0.0 0.00 0.00 0.04 89 1012.0
20260507154832 61 118 3.0 0.0 0.00 0.00 0.03 89 1012.0
20260507154344 61 116 4.0 0.0 0.00 0.00 0.03 89 1012.0
20260507153834 61 106 4.0 0.0 0.00 0.00 0.03 89 1012.0
20260507153345 61 139 4.0 0.0 0.00 0.00 0.03 88 1011.9
20260507152831 61 115 4.0 0.0 0.00 0.00 0.03 89 1011.9
20260507152344 62 95 4.0 0.0 0.00 0.00 0.03 88 1011.9
20260507151855 62 145 5.0 0.0 0.00 0.00 0.03 88 1012.0
20260507151343 62 130 4.0 0.0 0.00 0.00 0.03 88 1011.9
20260507150833 63 139 4.0 0.0 0.00 0.00 0.03 88 1011.9
20260507150335 63 165 4.0 0.0 0.00 0.00 0.02 87 1011.9
20260507145838 63 129 3.0 0.0 0.00 0.00 0.02 87 1011.9
20260507145329 63 143 3.0 0.0 0.00 0.00 0.02 86 1011.9
20260507144839 63 144 3.0 0.0 0.00 0.00 0.02 85 1011.9
20260507144347 63 133 4.0 0.0 0.00 0.00 0.02 84 1011.9
20260507143836 64 156 5.0 0.0 0.00 0.00 0.02 83 1012.0
20260507143346 64 160 5.0 0.0 0.00 0.00 0.02 81 1012.0
20260507142837 65 95 4.0 0.0 0.00 0.00 0.02 78 1012.0
20260507142329 65 153 4.0 0.0 0.00 0.00 0.02 74 1012.0
20260507141835 65 97 5.0 0.0 0.00 0.00 0.02 73 1012.0
20260507141405 65 143 5.0 0.0 0.00 0.00 0.02 74 1012.0
20260507140835 66 72 5.0 0.0 0.00 0.00 0.02 75 1012.1
20260507140407 66 123 6.0 0.0 0.00 0.00 0.02 76 1012.1
20260507135829 66 78 6.0 0.0 0.00 0.00 0.02 77 1012.1
20260507135336 66 102 6.0 0.0 0.00 0.00 0.02 78 1012.1
20260507134906 65 89 6.0 0.0 0.00 0.00 0.02 78 1012.2
20260507134356 65 113 7.0 0.0 0.00 0.00 0.02 80 1012.2
20260507133846 65 94 7.0 0.0 0.00 0.00 0.02 81 1012.2
20260507133353 65 127 7.0 0.0 0.00 0.00 0.02 81 1012.2
20260507132858 65 51 7.0 0.0 0.00 0.00 0.02 82 1012.3
20260507132328 65 96 7.0 0.0 0.00 0.00 0.02 80 1012.4
20260507131838 66 98 7.0 0.0 0.00 0.00 0.01 77 1012.4
20260507131344 67 101 7.0 0.0 0.00 0.00 0.00 74 1012.4
20260507130834 67 91 8.0 0.0 0.00 0.00 0.00 73 1012.3
20260507130345 67 54 8.0 0.0 0.00 0.00 0.00 72 1012.4
20260507125828 68 4 7.0 0.0 0.00 0.00 0.00 72 1012.4
20260507125339 68 94 6.0 0.0 0.00 0.00 0.00 71 1012.4
20260507124845 68 99 6.0 0.0 0.00 0.00 0.00 71 1012.5
20260507124336 68 94 7.0 0.0 0.00 0.00 0.00 71 1012.4
20260507123906 68 65 6.0 0.0 0.00 0.00 0.00 70 1012.5
20260507123336 68 111 5.0 0.0 0.00 0.00 0.00 70 1012.5
20260507122828 68 65 6.0 0.0 0.00 0.00 0.00 71 1012.6
20260507122334 68 58 6.0 0.0 0.00 0.00 0.00 70 1012.6
20260507121844 68 94 6.0 0.0 0.00 0.00 0.00 70 1012.7
20260507121333 68 102 6.0 0.0 0.00 0.00 0.00 70 1012.7
20260507120843 68 95 7.0 0.0 0.00 0.00 0.00 70 1012.7
20260507120334 67 84 7.0 0.0 0.00 0.00 0.00 70 1012.8
20260507115833 67 117 8.0 0.0 0.00 0.00 0.00 69 1012.8
20260507115403 67 92 7.0 0.0 0.00 0.00 0.00 69 1012.8
20260507114832 68 89 7.0 0.0 0.00 0.00 0.00 69 1012.9
20260507114341 68 200 7.0 0.0 0.00 0.00 0.00 70 1012.9
20260507113903 68 93 7.0 0.0 0.00 0.00 0.00 68 1013.0
20260507113332 68 119 7.0 0.0 0.00 0.00 0.00 69 1013.1
20260507112903 68 123 8.0 0.0 0.00 0.00 0.00 70 1013.1
20260507112345 68 123 7.0 0.0 0.00 0.00 0.00 70 1013.2
20260507111836 68 117 7.0 0.0 0.00 0.00 0.00 70 1013.2
20260507111346 68 102 6.0 0.0 0.00 0.00 0.00 71 1013.1
20260507110856 68 51 7.0 0.0 0.00 0.00 0.00 71 1013.2
20260507110346 68 82 8.0 0.0 0.00 0.00 0.00 70 1013.2
20260507105846 68 117 9.0 0.0 0.00 0.00 0.00 69 1013.2
20260507105338 68 84 9.0 0.0 0.00 0.00 0.00 70 1013.3
20260507104828 68 38 8.0 0.0 0.00 0.00 0.00 70 1013.3
20260507104338 69 45 8.0 0.0 0.00 0.00 0.00 69 1013.3
20260507103828 68 52 8.0 0.0 0.00 0.00 0.00 70 1013.2
20260507103355 68 122 8.0 0.0 0.00 0.00 0.00 69 1013.4
20260507102844 69 82 7.0 0.0 0.00 0.00 0.00 68 1013.4
20260507102334 69 63 7.0 0.0 0.00 0.00 0.00 69 1013.3
20260507101843 69 71 8.0 0.0 0.00 0.00 0.00 69 1013.3
20260507101335 69 75 8.0 0.0 0.00 0.00 0.00 70 1013.3
20260507100841 68 26 8.0 0.0 0.00 0.00 0.00 71 1013.3
20260507100331 68 68 8.0 0.0 0.00 0.00 0.00 71 1013.5